Regional Weather Roundup
Issued by NWS Goodland, KS

Home | Current Version | Previous Version | Text Only | Print | Product List | Glossary Off
Versions: 1 2 3 4 5 6 7 8 9 10 11 12 13 14 15 16 17 18 19 20 21 22 23 24 25 26 27 28 29 30 31 32 33 34 35 36 37 38 39 40 41 42 43 44 45 46 47 48 49 50

489
ASUS43 KGLD 292159
RWRGLD

GOODLAND FORECAST AREA HOURLY WEATHER ROUNDUP
NATIONAL WEATHER SERVICE GOODLAND KS
400 PM MDT FRI JUL 29 2016

...OFFICIAL OBSERVATIONS...

CITY           SKY/WX    TMP DP  RH WIND       PRES   REMARKS
GOODLAND KS    CLOUDY    74  65  73 SE9       30.10F
HILL CITY KS   SUNNY     87  62  43 VRB5      30.03F
IMPERIAL NEB   PTSUNNY   81  58  45 SE8       30.07F
MCCOOK NEB     SUNNY     85  57  38 S6        30.04F
AKRON CO       SUNNY     79  55  43 SE17G24   30.11F
BURLINGTON CO  MOSUNNY   81  58  45 S15       30.12F
LIMON CO       SUNNY     80  56  43 SE15G23   30.16F
$$

...UNOFFICIAL OBSERVATIONS...

CITY           SKY/WX    TMP DP  RH WIND       PRES   REMARKS
LENORA KS        N/A     85  32  15 MISG        N/A
NORTON KS      MOSUNNY   88  54  31 CALM      30.03F
SHARON SPRINGS   N/A     81  66  59 S9          N/A
KIT CARSON CO    N/A     80  59  48 MISG        N/A
$$




USA.gov is the U.S. government's official web portal to all federal, state and local government web resources and services.